Wind_Speed
4 2 2 3 4 5 8 10 11 11 10 11 11 7 3 4 6 4 3 3 5 5 5 5 3 1 2 5 7 8 10 11 13 13 14 15 15 17 19 20 22 23 25 25 24 21 20 18 17 17 17 18 20 21 21 21 22 25 27 27 25 23 22 22 20 18 18 18 18 17 17 17 17 16 16 15 14 12 11 10 9 8 7 7 6 6 5
5 2 3 5 6 6 6 9 10 11 12 11 10 6 3 5 5 4 1 3 6 5 6 5 3 3 1 3 6 7 9 11 13 14 15 16 16 18 20 21 22 23 24 25 25 24 22 20 19 19 19 19 20 22 22 21 22 25 28 28 26 24 22 21 20 19 20 20 19 19 19 18 18 17 16 15 14 13 12 11 10 8 7 6 5 4 3
6 5 5 6 7 7 7 7 7 8 10 9 7 4 2 4 5 3 2 5 6 4 3 2 1 1 3 5 5 7 9 12 14 15 16 16 17 18 20 21 23 23 23 25 26 25 24 22 20 21 21 21 21 22 23 24 24 25 27 28 28 26 22 20 20 21 22 21 20 20 20 20 19 18 17 16 15 14 13 12 11 9 7 6 4 3 2
6 7 7 7 6 7 8 7 7 9 9 7 6 5 4 6 7 5 5 7 5 1 2 1 2 3 4 5 6 7 9 11 14 15 16 17 17 17 18 20 22 23 23 25 26 26 24 23 22 22 23 23 24 25 25 25 25 24 26 27 28 27 24 21 22 23 23 23 22 22 22 21 20 19 18 17 16 15 14 13 11 9 7 6 4 3 1
6 7 7 6 6 7 7 5 5 9 10 7 5 6 6 8 8 5 5 6 3 3 1 3 2 4 6 5 5 6 8 10 13 14 16 17 18 17 18 20 22 24 25 25 26 26 25 24 23 24 24 25 26 26 27 27 25 24 27 30 29 27 25 23 24 25 24 23 23 23 23 22 21 20 19 18 17 17 15 14 12 10 8 6 5 4 2
5 7 7 5 7 8 4 1 2 2 5 6 7 5 3 5 7 6 7 7 4 2 2 4 3 1 1 1 2 3 4 7 11 13 14 16 16 16 17 20 22 24 25 25 25 25 24 23 23 23 24 25 26 26 27 27 26 26 29 31 30 27 26 25 26 26 26 24 24 24 24 23 22 20 19 20 19 18 16 14 12 10 8 7 6 5 3
4 6 6 7 8 4 3 5 5 3 1 2 4 0 6 5 4 8 11 11 7 6 5 5 6 6 5 4 3 3 2 4 7 10 12 14 15 16 19 21 22 24 26 27 26 25 23 23 22 22 23 24 25 26 26 26 28 30 31 30 28 29 28 28 28 28 27 26 26 26 25 24 23 21 22 22 20 18 16 14 12 9 8 8 7 6 4
4 4 6 8 4 4 7 6 5 3 1 1 1 3 7 9 6 6 9 10 8 8 7 7 7 7 7 5 5 9 7 4 4 8 10 11 13 16 19 21 22 24 27 26 24 23 22 23 23 24 24 25 26 26 27 27 29 31 30 27 27 29 32 31 31 30 28 27 28 28 27 25 23 23 24 23 20 19 17 14 11 10 11 10 7 6 5
3 6 8 6 3 4 6 5 5 3 1 1 1 2 5 8 8 6 7 8 8 8 8 8 6 5 6 3 7 14 13 10 7 6 8 9 10 12 14 17 18 21 25 25 23 21 21 23 24 24 25 27 27 27 28 29 30 30 30 29 27 29 33 34 32 32 30 29 30 30 28 26 25 26 25 23 21 19 17 14 13 13 12 9 6 6 6
2 6 8 7 6 5 3 4 5 5 3 3 3 3 3 7 9 8 7 8 8 7 7 7 5 4 6 5 5 14 16 13 12 9 5 5 7 9 12 15 15 16 20 24 26 23 22 22 23 23 25 27 28 28 29 32 32 31 31 32 30 31 34 35 34 33 32 31 31 31 28 27 27 27 25 23 21 19 16 14 13 13 9 5 6 8 8
4 6 8 7 5 3 3 6 6 7 5 3 4 5 2 4 9 11 10 10 10 9 8 7 5 4 5 2 7 15 16 13 13 12 9 5 3 5 9 14 13 11 13 20 26 27 24 22 22 23 25 27 29 30 31 32 33 32 34 35 33 31 33 34 33 32 31 30 30 29 27 26 27 26 25 23 21 19 16 13 11 8 6 7 11 11 9
2 3 5 5 2 2 5 8 8 7 5 1 4 6 3 4 6 9 11 11 12 12 10 6 4 3 2 4 9 13 14 14 15 15 13 10 5 2 4 9 11 9 9 15 23 26 26 23 22 24 26 27 29 32 32 33 34 34 34 33 30 27 29 31 30 29 28 27 27 25 23 23 25 25 23 21 20 17 14 11 7 5 7 12 13 11 9
4 3 6 5 1 2 5 7 8 7 4 3 5 3 1 4 5 7 10 10 11 13 13 9 7 8 7 6 7 11 13 15 17 17 16 15 13 9 4 3 6 6 6 10 16 21 24 25 24 25 27 28 29 31 31 32 33 31 30 29 27 26 28 29 28 27 26 25 25 26 25 25 25 24 23 21 18 14 11 10 7 7 11 14 12 11 11
4 4 5 4 2 1 5 6 6 6 5 5 2 2 3 5 6 6 7 8 9 10 10 9 8 8 7 7 8 10 13 14 16 17 18 18 18 16 13 8 4 1 1 4 8 13 19 22 23 25 26 26 27 27 28 30 32 32 33 32 31 31 30 27 24 23 23 22 24 27 28 27 26 26 25 21 16 12 10 10 10 13 15 15 13 12 11
2 4 5 3 3 3 7 6 3 3 4 2 3 4 4 6 8 7 7 8 9 9 7 6 5 4 5 6 7 9 12 14 16 17 19 20 19 19 17 15 11 9 7 4 1 5 8 12 16 20 22 23 23 22 24 27 29 30 30 30 30 31 30 25 22 23 22 20 23 27 27 26 25 25 23 18 14 12 12 13 15 16 16 15 14 13 10
2 5 4 1 2 7 11 7 2 3 4 4 5 5 5 7 9 8 8 9 10 9 8 8 7 5 5 7 7 8 10 12 15 17 18 19 19 18 18 17 16 15 13 11 8 4 1 2 5 9 14 18 20 20 21 21 21 21 22 23 24 26 27 26 26 25 21 18 21 25 26 25 24 20 17 15 13 12 14 16 18 17 16 15 14 12 10
3 1 3 6 7 10 12 11 9 9 8 7 7 5 6 8 9 10 10 11 12 11 10 10 9 7 8 9 9 8 8 9 13 15 16 17 18 18 18 18 16 15 15 15 15 13 10 6 3 2 1 6 9 11 11 10 10 10 13 15 18 21 24 25 25 22 19 20 24 27 28 27 22 16 15 14 13 14 18 19 17 15 14 13 12 10 9
4 5 9 10 9 11 12 11 11 11 11 11 11 9 9 10 11 11 10 10 12 12 11 12 11 10 11 11 9 9 8 8 9 12 14 15 16 16 16 16 14 12 12 14 15 15 14 11 7 6 4 3 3 5 7 7 8 9 10 12 15 18 20 21 20 20 21 24 27 29 29 25 18 14 14 12 13 17 21 19 16 15 14 12 11 9 9
3 3 8 11 8 10 12 11 11 12 13 13 12 12 12 13 12 13 13 11 10 10 11 13 13 12 13 13 11 10 9 8 8 9 10 12 13 14 14 14 12 10 8 9 11 12 12 11 10 11 12 10 5 5 8 9 11 13 14 14 15 16 17 17 18 21 25 28 30 29 25 19 16 15 13 12 16 21 20 17 17 16 13 11 11 10 10
3 2 7 13 9 6 10 12 12 13 14 13 12 11 13 13 12 13 14 13 12 11 11 12 13 13 13 14 14 12 10 9 9 9 10 10 10 12 12 12 11 9 7 7 10 12 12 12 11 11 11 9 6 5 7 8 9 9 10 11 13 15 16 17 21 26 30 31 31 27 21 18 18 17 15 16 19 20 18 18 18 16 13 13 12 11 9
2 2 7 13 9 5 8 11 13 13 13 11 9 9 12 13 13 13 13 13 12 12 11 10 10 11 12 13 14 13 11 11 12 13 13 13 12 12 11 11 10 8 5 5 7 8 8 10 11 9 7 7 7 5 6 7 7 7 9 12 14 17 21 24 28 31 32 31 27 22 20 20 19 17 18 19 19 21 23 20 16 14 14 14 11 8 7
0 1 4 8 6 5 6 9 11 12 10 8 8 9 9 9 9 9 9 10 10 9 10 9 8 8 8 9 10 11 10 10 11 12 12 13 13 13 12 10 8 6 4 5 5 3 1 2 3 2 2 5 7 6 6 7 8 8 10 14 16 19 23 26 29 31 30 28 25 20 19 20 19 19 23 24 24 26 24 17 12 12 11 10 7 5 4
3 5 6 4 3 6 9 10 11 10 8 8 10 10 9 9 9 8 9 10 9 8 9 9 7 7 7 8 9 9 8 9 11 12 12 12 12 12 12 10 8 6 5 5 4 0 3 4 3 1 2 2 4 5 6 7 8 9 11 15 18 20 23 26 29 29 28 27 25 20 19 20 19 22 27 27 24 22 18 15 15 14 9 7 6 5 4
9 10 9 7 7 9 11 12 11 9 8 10 11 11 10 10 9 8 8 9 9 9 9 8 6 6 6 7 8 9 8 9 10 11 11 11 12 12 11 10 8 7 6 5 3 1 4 5 5 4 5 5 4 5 6 7 8 10 13 17 19 22 25 27 27 27 27 27 24 20 21 22 22 24 28 27 23 20 20 18 16 12 8 8 7 5 4
9 11 11 11 10 11 11 11 8 6 9 12 11 11 11 11 10 10 9 8 8 9 10 9 8 8 8 8 7 7 7 8 8 8 9 9 10 9 9 9 8 7 6 6 5 4 4 6 7 7 8 7 7 6 7 7 8 11 15 18 21 24 26 27 26 27 28 26 23 22 24 26 25 25 27 28 26 24 22 17 13 10 10 9 7 4 5
6 9 11 10 7 6 7 7 7 10 13 13 12 13 13 12 10 9 8 7 7 8 9 9 10 9 9 9 9 8 8 9 9 9 9 10 10 10 9 8 8 7 6 6 6 6 6 7 8 9 10 10 9 8 8 9 10 12 16 20 22 24 25 25 27 29 28 25 24 25 27 26 25 26 27 28 26 24 20 16 14 13 11 8 5 5 7
8 10 9 5 5 9 11 11 10 12 13 13 13 14 14 13 11 9 9 9 10 9 9 10 11 10 9 9 9 9 10 11 11 10 10 10 10 11 11 10 9 8 8 7 7 7 8 8 9 10 11 12 12 11 11 11 12 13 17 21 23 24 24 24 26 27 26 24 25 27 26 24 25 26 26 25 22 19 16 14 14 13 9 6 6 8 8
10 12 12 9 8 10 11 10 10 11 13 13 14 14 14 13 12 11 13 13 13 12 12 13 13 12 12 12 12 11 11 12 12 12 12 11 11 12 12 11 10 9 9 8 8 8 8 8 9 10 12 13 13 12 13 14 15 16 20 23 26 27 26 24 24 25 26 26 28 28 27 27 27 26 24 22 19 17 15 14 13 11 9 8 10 10 9
12 11 11 10 9 9 10 10 11 12 14 14 14 15 16 15 14 14 15 16 15 15 15 16 15 15 15 15 15 15 15 15 15 15 15 14 13 13 12 12 11 11 10 10 10 10 10 10 10 10 12 13 12 12 13 15 17 19 24 27 28 28 27 26 25 26 27 27 28 28 29 29 27 24 22 20 19 18 17 15 13 11 11 13 13 12 11
12 10 11 11 11 11 11 12 13 14 16 16 16 16 17 17 16 16 16 17 17 17 17 17 16 17 17 17 17 18 17 17 17 16 15 15 15 13 13 12 12 10 9 9 10 11 11 12 11 11 12 14 13 12 13 16 18 22 26 28 28 28 28 27 27 27 27 27 29 30 29 27 25 25 23 21 19 18 17 14 13 13 15 15 14 12 11
10 9 11 12 12 13 14 14 14 15 17 17 17 18 18 18 18 17 17 18 18 17 17 17 17 17 17 17 18 18 17 16 15 15 15 15 14 13 13 12 11 10 9 9 11 12 13 12 11 12 14 15 13 11 13 16 18 21 24 27 28 29 28 25 24 26 29 32 31 29 27 27 27 25 23 21 20 18 15 13 14 16 17 16 14 12 11
11 10 12 15 15 14 15 16 16 16 17 18 17 17 17 17 17 17 17 18 18 17 17 17 16 17 17 17 17 17 16 15 14 13 13 13 13 14 14 14 14 13 13 13 14 14 13 12 10 12 13 13 12 12 13 15 16 19 22 26 28 28 25 23 26 30 33 33 30 28 28 28 26 23 22 20 18 16 15 16 18 18 17 15 13 12 11
13 13 15 17 17 17 17 18 17 17 17 17 16 15 15 15 15 15 16 17 18 17 17 17 18 17 17 16 15 15 14 14 13 11 10 10 13 15 16 16 16 16 15 15 15 15 14 12 11 12 12 11 10 10 11 13 16 19 22 25 25 24 25 28 33 35 33 30 28 28 27 25 22 21 21 19 16 16 17 18 18 18 17 14 12 12 11
11 10 11 13 14 16 17 18 18 18 19 18 17 16 16 16 16 16 17 18 19 18 18 19 19 18 17 17 15 14 13 13 13 12 11 11 14 17 18 17 17 17 16 16 14 13 13 13 12 12 11 9 8 8 9 13 16 18 20 21 23 28 32 34 35 33 29 28 27 26 23 21 20 20 20 17 16 18 20 20 19 18 16 13 12 12 11
9 9 9 10 11 13 14 15 16 17 18 19 19 18 18 17 18 18 18 19 19 18 19 19 20 19 18 18 16 15 14 13 13 13 13 14 15 17 17 16 16 15 15 14 13 11 11 11 11 9 8 7 7 8 9 12 13 15 18 22 28 33 35 34 31 28 26 25 24 22 20 20 20 20 19 18 19 20 21 20 19 17 15 13 13 12 11
9 9 10 11 12 13 13 14 14 15 15 16 17 18 19 19 19 19 19 19 19 18 18 20 21 21 19 17 16 16 16 15 15 15 14 14 16 17 16 14 13 12 11 10 10 9 8 8 7 6 5 5 6 8 9 10 12 15 20 27 32 34 33 29 25 23 21 20 20 19 19 20 21 20 20 20 21 21 21 20 19 17 15 14 13 12 11
9 10 10 12 13 14 14 14 14 14 15 15 16 17 18 18 20 20 20 20 19 18 19 20 21 21 19 18 18 18 17 17 16 16 15 15 16 16 14 12 10 9 8 7 7 6 5 5 5 6 5 5 7 8 9 11 15 20 26 31 33 32 29 25 23 21 20 19 19 20 22 23 22 21 21 22 22 21 20 19 19 18 16 14 13 12 10
10 10 11 13 14 14 15 15 15 14 15 16 17 17 17 18 20 21 21 20 20 19 19 20 20 20 20 20 19 19 18 17 17 17 17 16 15 14 13 11 9 7 6 6 6 5 4 4 5 6 6 7 9 10 13 16 21 26 29 31 29 27 25 24 22 20 19 19 21 24 25 24 23 21 21 22 21 20 19 18 18 18 16 14 13 12 10
11 12 13 14 15 15 16 17 16 16 16 16 17 17 18 19 21 21 21 22 22 21 20 20 20 20 20 19 19 19 18 17 17 18 17 16 14 14 12 11 9 9 9 8 7 6 4 4 5 7 8 10 12 15 19 22 24 26 26 26 24 23 22 21 19 19 20 22 26 26 23 22 20 19 19 19 19 18 18 18 18 18 17 15 13 12 10
13 14 16 17 17 17 17 18 19 19 18 17 16 17 18 20 20 21 22 24 24 23 22 21 21 20 19 19 19 19 18 17 17 17 17 15 14 14 14 12 12 13 12 9 7 7 6 5 7 9 11 13 16 19 22 23 23 21 20 19 19 20 20 19 18 20 24 25 25 23 21 19 18 18 18 18 18 17 17 18 19 19 17 15 13 12 10
14 15 16 18 18 18 18 19 20 21 20 19 18 17 18 18 19 21 23 25 25 24 22 20 20 21 21 21 22 22 20 19 18 18 17 15 14 14 14 13 12 13 12 11 10 9 7 6 8 11 14 16 17 19 20 20 19 17 16 16 17 18 19 20 21 23 23 22 20 20 19 18 17 18 18 18 17 17 17 18 19 19 17 15 14 12 11
15 16 18 18 19 19 19 20 21 21 21 21 20 19 19 19 20 21 22 23 24 24 22 20 20 21 22 23 23 22 22 21 19 18 18 17 16 17 18 16 12 11 12 12 11 9 8 9 11 13 16 17 17 18 19 19 16 15 16 17 18 18 20 21 21 20 19 19 18 18 18 18 18 19 19 19 18 17 17 18 18 18 17 16 14 13 12
17 18 18 19 19 20 21 22 21 21 21 22 22 21 22 22 21 20 20 21 21 22 21 20 21 21 21 22 22 21 20 20 18 18 18 18 17 18 20 18 13 10 11 12 11 11 11 12 13 15 17 18 17 17 19 19 18 17 18 19 19 18 18 19 19 18 18 18 18 18 18 18 19 20 20 20 18 18 18 17 17 17 17 16 15 13 12
18 18 18 19 20 21 22 22 21 21 22 23 24 24 24 23 22 20 20 20 20 21 21 21 21 20 20 20 20 19 19 18 17 17 17 17 16 16 16 16 15 14 13 12 12 12 12 13 15 17 18 19 19 19 20 20 21 20 20 19 18 18 17 17 17 18 18 18 18 18 18 19 20 21 21 20 19 18 18 18 17 17 17 16 15 14 13
18 18 19 20 21 21 21 21 21 23 24 24 25 25 24 22 21 20 19 20 21 22 22 21 21 20 20 20 19 19 18 16 16 16 17 16 14 11 11 11 11 12 13 15 16 14 14 16 18 18 18 18 20 21 21 21 22 23 22 20 19 18 17 17 18 18 18 18 18 17 17 19 20 21 21 20 19 18 18 18 18 17 17 17 16 14 13
18 19 19 20 21 21 21 22 23 24 24 25 24 23 22 21 20 20 20 21 22 22 22 22 21 21 21 20 19 17 16 15 14 14 14 13 12 11 12 13 12 12 13 16 17 16 16 17 19 19 18 19 21 23 24 24 23 23 24 22 20 18 18 18 18 18 18 17 17 17 17 19 20 21 21 21 20 19 19 19 19 18 18 17 16 15 14
19 20 21 21 22 23 24 24 25 24 23 23 22 22 21 21 21 21 21 22 22 22 22 22 22 21 21 20 18 16 15 14 13 12 11 11 10 9 11 14 16 15 15 15 17 17 18 17 17 17 18 20 21 23 24 24 25 25 26 25 22 21 20 19 19 18 17 17 17 18 18 19 20 21 21 20 20 19 20 21 21 19 18 18 18 18 16
21 21 22 23 23 24 24 23 22 22 21 21 21 21 21 22 22 22 23 23 22 21 21 22 23 22 22 21 18 16 15 17 17 17 17 17 15 13 12 13 14 15 15 16 17 18 18 18 18 18 19 21 23 24 24 24 25 26 25 23 21 19 19 19 18 17 16 16 17 18 18 19 19 20 20 21 21 21 22 23 22 20 20 21 21 20 18
21 21 21 21 21 21 21 20 20 20 20 20 20 21 21 22 22 22 22 21 21 21 22 24 23 21 19 18 16 15 15 16 17 18 18 19 20 20 19 16 12 11 13 14 15 16 17 17 16 17 19 20 23 24 24 24 25 26 26 25 23 20 18 18 17 17 16 17 17 16 17 19 21 21 23 24 25 25 25 25 24 23 23 23 22 20 18
21 21 20 20 19 20 20 20 21 21 20 20 21 21 21 21 21 21 20 20 21 22 22 23 21 18 15 14 12 10 9 9 9 9 10 9 8 9 10 8 6 6 7 9 9 12 16 17 16 17 19 21 21 23 24 25 27 30 33 33 29 24 22 21 21 19 19 18 16 14 14 16 17 18 21 25 27 27 27 26 26 26 25 24 22 20 19
21 21 21 20 20 21 21 20 20 21 20 20 20 20 20 21 21 19 19 20 20 19 18 19 18 14 12 12 12 12 11 10 9 8 6 3 1 2 1 1 2 4 5 5 4 2 5 7 7 8 9 10 13 17 21 23 23 25 27 29 26 20 16 17 19 20 19 18 16 13 12 13 15 15 17 19 22 25 27 28 28 27 26 24 22 21 21
22 22 21 21 20 20 20 20 19 19 18 18 17 19 20 21 20 18 19 20 19 16 15 17 16 12 8 6 6 9 10 9 9 8 5 2 2 3 4 4 3 3 3 3 3 3 3 3 3 2 3 3 2 9 15 18 19 19 19 19 19 17 14 15 18 22 22 21 18 15 12 13 16 18 17 18 20 23 26 28 28 27 25 24 23 22 22
Wind_Direction
248 14 123 183 207 197 202 200 184 180 186 196 214 227 208 208 250 302 69 165 261 306 318 300 311 341 220 197 184 181 180 182 180 177 179 182 184 185 186 190 192 193 196 198 199 200 201 202 200 200 202 202 202 204 204 204 204 204 203 199 198 202 204 206 208 211 217 220 222 228 233 239 244 250 255 258 259 259 258 258 258 259 270 289 304 317 335
216 184 180 190 202 196 187 191 186 182 190 201 214 224 218 229 265 328 11 246 267 293 303 311 9 46 122 155 163 173 178 184 184 184 187 189 190 191 191 194 196 196 197 201 204 206 208 208 204 203 204 202 202 206 204 202 204 206 204 201 201 205 209 211 213 217 222 224 227 233 237 242 248 252 254 254 252 250 249 248 247 250 263 280 291 305 327
204 177 182 190 203 206 188 179 180 182 189 200 213 227 219 228 249 250 225 261 266 264 292 310 32 120 162 157 168 183 187 190 192 194 196 196 197 197 196 197 200 201 200 202 206 210 214 215 210 210 211 207 206 207 204 203 204 205 205 204 205 208 212 215 218 222 226 229 232 237 240 245 250 251 251 248 244 242 241 240 239 244 254 261 263 272 297
207 174 183 185 191 208 204 192 187 187 192 199 209 215 205 215 234 226 219 257 273 107 102 225 192 183 201 191 178 183 189 192 195 198 201 202 202 202 201 199 200 202 203 205 209 212 215 216 215 215 215 213 213 210 206 205 205 205 207 208 210 212 215 218 222 225 229 233 237 240 244 248 249 248 246 241 237 237 236 234 234 237 240 238 233 228 231
205 173 175 174 183 209 214 207 199 195 195 197 198 205 211 219 232 235 239 270 332 71 149 253 201 187 213 212 192 191 193 194 199 203 205 206 207 207 204 201 202 205 207 210 214 214 213 214 215 215 215 216 216 213 209 207 205 206 210 212 213 216 218 222 226 229 232 237 240 243 247 248 246 244 239 234 233 233 229 227 227 226 222 218 213 202 190
204 165 154 173 209 220 211 77 35 200 201 207 213 219 229 230 240 266 282 293 335 10 293 308 334 304 245 223 218 221 206 202 210 211 210 211 211 210 210 208 208 210 210 213 217 218 216 215 215 214 214 216 217 214 211 209 207 209 214 215 216 218 221 225 228 232 236 239 243 247 249 246 243 238 231 229 230 227 224 223 219 213 209 206 201 188 174
217 157 157 207 223 213 110 76 50 30 16 241 234 73 41 18 300 293 289 284 304 330 326 327 329 331 338 336 331 329 286 245 238 231 225 221 214 212 218 222 219 218 216 217 220 222 219 217 216 213 212 215 216 213 210 210 211 214 217 218 219 222 225 228 231 235 237 240 245 248 247 244 238 229 225 227 226 221 218 214 207 201 200 199 191 177 168
226 194 200 216 205 105 103 99 61 40 84 128 191 113 61 28 357 323 301 294 306 317 313 309 307 309 310 318 42 44 22 349 301 264 250 244 233 228 234 238 236 231 225 221 223 225 222 217 217 218 217 216 215 214 213 214 216 219 220 220 222 227 229 231 234 238 239 242 246 247 244 240 230 223 224 224 220 215 210 202 193 189 188 186 180 173 171
229 233 227 212 167 131 131 101 39 8 35 23 303 160 75 33 14 352 328 325 324 314 303 300 300 304 289 251 79 48 23 13 359 304 272 264 258 254 254 252 250 245 236 226 224 228 226 220 219 222 221 220 219 217 216 218 220 222 223 223 225 230 233 235 237 240 242 245 247 246 242 235 224 220 222 218 213 209 200 189 183 183 186 186 180 180 176
241 248 240 217 199 193 144 63 20 346 330 318 280 215 103 41 22 12 1 355 349 336 320 311 303 284 255 214 75 29 12 14 17 2 330 282 265 262 260 255 256 257 245 233 228 230 230 226 225 225 224 224 223 220 220 222 223 224 227 228 228 231 236 238 239 242 246 247 247 246 239 228 220 218 216 210 204 198 190 184 185 190 201 202 175 172 171
230 240 244 239 221 191 42 15 355 340 331 301 251 229 179 54 27 21 22 19 11 1 342 323 307 269 239 201 36 15 9 17 22 22 23 3 293 270 268 262 259 259 247 234 231 232 233 231 229 227 227 226 224 223 224 225 226 227 230 232 232 234 239 242 244 246 248 246 245 242 230 217 214 211 208 202 195 188 183 181 186 199 205 178 166 168 173
213 251 259 265 240 98 31 359 346 346 350 279 231 232 188 81 38 24 25 25 22 16 4 348 346 353 4 38 28 16 21 33 35 35 37 32 26 3 292 273 266 261 244 233 233 235 238 236 231 230 230 229 228 228 228 229 231 232 234 236 236 236 241 247 249 251 250 244 239 230 212 202 204 203 199 195 189 184 183 182 191 206 181 169 170 175 180
176 217 243 258 246 92 25 355 352 352 331 236 229 234 99 55 28 19 20 19 20 22 23 30 47 52 48 44 35 29 35 41 41 42 44 45 47 50 34 303 285 279 254 240 237 238 240 238 233 231 231 231 232 232 233 235 237 237 238 240 240 241 248 253 256 256 252 243 233 222 211 209 211 205 199 198 193 191 198 201 202 190 175 174 177 179 182
180 186 212 253 271 69 25 359 357 349 300 242 236 6 16 7 0 2 6 7 9 14 26 41 54 61 55 43 38 36 36 39 40 42 46 50 52 54 54 52 43 43 181 228 237 239 242 242 240 239 236 235 236 236 236 238 240 242 244 245 247 250 254 257 259 253 243 235 230 224 218 219 217 205 198 200 198 196 204 196 173 167 174 178 179 181 186
178 170 168 215 234 64 28 1 346 346 320 303 5 4 357 3 2 357 359 5 359 349 355 14 22 33 34 29 31 32 32 35 36 36 39 42 44 46 48 52 58 64 72 86 181 232 241 244 244 244 243 241 240 241 242 244 246 248 251 253 254 254 252 250 248 242 239 242 240 231 224 219 210 199 194 194 193 194 194 176 161 167 180 184 182 184 185
263 213 184 162 77 53 32 22 67 51 13 5 359 355 11 17 10 7 12 15 3 346 337 333 329 332 346 352 4 17 24 30 29 27 29 30 31 32 35 38 42 47 51 54 53 53 59 235 244 251 248 242 239 239 243 249 255 259 261 260 257 253 250 247 244 243 244 244 235 226 219 209 201 197 196 194 196 195 185 171 168 175 183 184 184 185 185
359 352 51 67 81 68 52 52 57 42 21 12 5 8 25 21 12 10 13 14 11 2 350 340 335 339 342 341 348 1 13 25 27 25 24 22 22 24 26 27 30 36 41 41 37 34 31 30 41 57 241 238 238 239 241 251 262 262 259 258 257 254 251 248 247 245 237 225 219 215 207 198 197 203 201 198 200 188 174 172 178 181 181 183 186 185 185
43 56 48 53 67 63 55 53 47 35 28 23 20 25 30 20 10 6 3 4 7 7 6 4 359 356 354 349 345 350 2 19 28 28 24 19 18 20 19 17 20 26 31 30 26 25 22 15 14 12 357 333 282 261 259 261 259 255 251 248 247 246 243 240 239 232 218 209 205 200 195 194 200 204 199 200 198 178 168 173 184 182 180 184 185 183 184
354 70 34 20 28 46 43 33 25 23 24 23 20 20 20 14 7 2 357 351 353 0 8 9 4 4 8 6 360 355 357 7 16 18 17 14 15 18 16 11 7 2 358 358 0 3 5 3 359 347 331 318 296 270 271 267 260 259 256 244 233 231 232 231 228 218 205 196 189 186 188 192 192 191 193 193 182 172 172 183 187 181 181 183 180 182 188
338 108 19 356 351 17 22 14 9 6 10 18 20 15 12 10 5 357 351 343 336 335 342 351 352 352 357 5 8 5 4 13 23 24 21 17 11 8 8 10 7 355 339 335 335 332 327 322 323 325 318 304 288 279 276 267 257 251 243 228 218 214 212 210 206 200 194 187 182 181 183 184 182 184 185 179 175 178 188 193 187 182 187 188 183 185 192
316 114 3 351 349 357 359 358 356 350 353 3 4 360 7 12 10 1 353 348 339 329 330 339 342 338 338 347 357 359 5 22 35 36 33 30 25 16 12 16 15 1 352 5 5 350 329 307 298 300 291 260 254 274 282 272 267 253 226 213 206 199 197 196 193 189 186 184 182 181 184 189 193 190 179 176 188 199 198 194 191 191 192 187 181 181 190
103 103 342 343 348 333 319 329 334 329 323 315 308 318 339 350 346 338 332 335 338 334 333 337 336 334 331 331 337 343 349 2 12 16 18 20 21 20 20 22 21 12 7 26 35 46 94 197 240 276 255 230 242 270 281 272 270 259 231 213 202 197 198 196 191 186 184 183 184 187 194 201 206 195 181 184 199 203 197 190 183 179 177 172 172 183 203
270 270 272 280 286 278 284 304 315 313 308 306 308 315 322 323 322 317 313 321 333 337 336 332 322 312 303 301 315 327 331 337 344 346 348 350 353 357 1 3 6 3 357 4 16 119 193 194 201 251 313 277 263 277 283 275 268 255 233 214 204 201 200 195 189 187 186 184 187 196 202 203 200 193 188 192 198 196 188 174 162 160 163 175 190 208 223
274 280 282 273 260 264 283 302 309 310 321 328 324 324 326 324 321 318 315 322 330 337 344 347 338 322 313 311 319 327 331 338 341 338 337 337 335 336 340 343 347 347 335 329 333 276 236 244 260 285 310 319 307 288 282 275 263 248 231 216 208 202 197 192 191 191 190 190 196 204 202 197 197 196 194 193 188 177 169 165 163 165 178 192 200 214 239
283 293 299 291 279 280 291 300 307 330 346 345 343 345 343 333 320 315 317 323 327 332 342 350 352 354 355 354 353 357 4 9 8 1 358 356 349 341 337 332 334 338 328 311 306 295 271 270 278 286 294 303 304 290 276 266 256 241 226 218 211 203 197 194 193 192 192 198 205 204 196 195 198 198 195 190 179 168 163 165 172 179 185 193 206 235 266
318 314 307 291 286 315 338 340 350 0 1 360 2 3 360 353 342 334 335 341 345 348 350 349 348 354 3 6 9 16 20 19 19 19 14 8 5 2 356 348 341 336 327 310 298 291 285 280 280 281 283 288 291 285 271 261 251 236 224 219 214 207 203 199 194 194 200 206 204 197 195 198 199 195 192 186 177 169 165 170 178 180 181 189 214 247 260
17 10 2 1 12 17 15 9 2 1 4 8 9 8 8 10 11 10 12 13 12 14 12 4 358 359 5 7 6 5 1 358 360 1 356 352 352 350 347 348 346 339 333 323 305 292 285 279 277 277 278 281 283 280 268 257 248 236 225 217 211 208 208 205 202 204 207 203 194 193 196 195 188 182 178 174 169 165 165 171 175 171 167 184 217 237 243
25 26 28 29 18 6 5 5 5 9 12 13 12 10 11 15 18 20 20 17 15 14 13 9 7 4 2 359 355 349 344 339 338 339 338 336 334 331 330 333 333 328 326 320 310 301 292 281 276 276 275 275 276 273 264 254 245 234 221 212 208 210 211 209 206 206 201 195 194 195 189 177 170 167 164 161 158 155 157 162 161 157 168 200 217 221 220
19 21 25 24 13 4 5 9 12 15 15 14 13 12 11 12 13 14 13 10 8 6 3 1 360 357 353 350 344 338 333 328 326 326 326 324 320 316 315 315 312 309 307 302 295 292 287 280 276 273 271 272 271 265 257 250 241 230 220 214 213 216 215 208 202 201 198 195 192 186 175 166 163 161 156 153 154 157 159 158 156 165 193 211 212 209 211
10 17 20 19 15 14 15 13 12 11 10 10 11 12 11 10 8 6 4 2 1 359 356 353 351 348 345 342 334 328 325 324 323 321 319 318 316 312 307 305 303 302 301 294 285 277 273 271 269 264 263 266 267 260 250 244 236 227 221 218 218 220 218 209 202 200 197 188 177 171 166 163 160 154 150 153 160 162 158 155 165 188 207 211 208 208 214
6 19 22 18 14 13 12 9 6 5 5 5 6 7 7 6 3 359 357 355 354 351 348 346 345 343 341 338 332 324 319 318 318 316 314 314 312 309 307 305 303 300 294 289 285 280 274 270 265 259 258 262 264 257 243 234 224 217 215 216 218 220 219 212 203 196 187 175 167 165 163 157 152 152 155 160 160 156 156 170 191 201 205 205 204 203 208
8 15 17 15 11 8 7 5 0 359 0 0 1 1 0 359 356 352 349 347 345 343 341 339 338 336 334 333 331 324 316 312 312 312 312 312 310 309 308 307 304 300 295 292 291 289 285 278 265 258 259 262 259 248 237 226 212 205 210 218 221 218 214 205 193 184 177 170 167 165 161 156 156 159 159 155 151 156 174 194 202 199 197 199 198 196 202
14 13 10 7 4 1 0 358 355 353 352 353 354 354 351 349 348 344 340 338 336 335 333 332 330 330 329 328 326 319 312 310 308 306 307 310 310 309 309 308 305 301 297 293 292 290 286 278 268 263 263 259 246 234 225 214 204 207 219 227 220 206 195 188 181 175 171 169 168 165 163 164 165 160 151 147 155 175 193 201 200 196 196 196 193 197 208
22 17 9 5 2 358 354 351 349 347 345 344 345 345 344 344 342 338 334 333 331 329 328 327 325 325 323 321 318 313 308 306 304 300 301 305 307 308 308 306 302 299 294 291 289 285 278 270 264 261 258 247 229 217 212 211 214 222 229 224 206 188 181 177 174 171 169 168 166 167 170 171 165 152 147 156 176 194 203 204 198 196 197 194 192 204 219
23 20 15 13 8 2 355 351 348 347 344 340 339 338 337 337 336 333 332 332 329 326 325 323 322 321 319 316 313 310 306 303 301 299 299 301 303 305 305 302 298 296 293 288 283 277 270 262 254 247 244 243 240 238 235 230 226 224 218 206 192 183 177 173 171 170 170 168 172 178 180 171 158 153 161 179 196 208 213 208 199 196 197 193 195 211 226
11 9 9 8 4 1 358 354 349 346 344 340 336 334 332 331 331 330 329 328 327 325 324 322 321 320 317 313 309 306 303 300 300 299 298 297 298 300 300 296 289 287 287 284 277 268 260 250 232 213 216 232 238 240 239 228 213 203 197 191 184 178 174 171 171 174 177 183 191 191 178 164 160 168 184 199 211 217 215 207 200 199 198 194 198 214 230
2 2 1 358 355 354 353 350 346 343 340 337 335 333 330 328 328 327 325 324 324 324 323 322 321 319 314 309 305 302 300 298 297 296 295 294 294 296 295 288 279 275 276 275 268 253 241 232 209 187 191 220 228 222 212 201 193 189 185 181 179 177 175 175 178 182 191 200 198 181 167 166 175 189 202 212 219 221 215 206 200 200 199 196 198 207 218
354 356 355 352 350 347 344 343 341 338 335 332 331 330 330 329 328 327 324 322 321 321 320 319 318 316 312 308 303 299 296 296 296 295 292 290 290 291 288 280 273 268 263 256 250 240 230 224 199 175 180 208 214 198 185 183 183 182 180 180 182 183 182 184 191 202 211 205 186 172 173 183 194 203 212 217 220 220 213 205 202 201 200 200 201 202 206
346 348 348 346 344 341 339 338 336 333 331 328 326 325 326 327 328 327 324 322 320 319 317 316 315 312 311 309 305 299 297 296 295 293 291 290 289 288 283 272 258 248 239 235 237 240 234 215 187 170 173 190 195 185 179 181 183 184 185 187 190 193 195 202 214 220 210 191 178 177 188 201 206 210 215 216 215 214 210 205 203 202 201 203 205 206 208
340 341 342 340 338 336 335 334 332 330 328 325 321 320 322 324 325 326 325 324 322 319 315 313 312 310 308 307 304 300 297 295 292 289 288 288 288 287 283 273 257 245 233 218 218 232 233 207 183 173 175 187 193 189 185 186 189 193 197 201 204 206 208 210 208 198 188 182 185 193 202 207 210 211 212 211 210 209 207 204 203 203 203 205 208 209 211
334 334 334 333 332 332 331 330 328 326 325 323 321 319 319 319 320 321 322 323 324 321 315 310 308 306 305 304 302 299 295 291 286 282 280 281 281 281 278 270 257 245 233 217 212 224 229 211 193 185 182 187 192 193 193 196 201 204 206 204 202 200 196 190 186 184 185 190 199 204 205 207 211 211 209 208 209 208 205 203 203 203 205 208 211 213 212
326 326 327 326 326 326 327 326 325 323 321 320 320 319 318 317 316 316 317 320 322 320 314 308 304 304 305 305 303 299 295 290 284 278 275 274 274 274 273 267 255 241 234 225 221 226 229 221 210 199 192 194 199 202 204 206 206 201 195 191 188 187 186 185 186 190 195 199 204 206 208 211 211 208 206 208 209 207 204 202 202 203 206 210 213 212 208
317 319 320 319 320 321 322 322 321 319 319 318 318 317 317 316 315 312 312 314 316 316 313 309 305 304 304 303 301 298 295 291 285 279 275 272 269 271 273 271 262 249 237 226 221 225 227 226 222 214 208 210 213 208 203 204 203 196 191 190 188 188 191 194 197 201 205 208 210 212 213 212 210 208 208 209 210 208 204 203 203 204 206 209 209 204 199
309 311 311 312 314 316 316 316 317 316 316 315 315 314 314 314 312 310 309 310 312 313 313 310 307 304 301 299 298 297 295 291 288 285 281 275 270 269 270 269 268 263 246 223 215 221 224 224 225 222 217 217 217 209 203 204 205 200 196 196 197 198 201 206 210 213 216 217 218 218 215 212 210 210 209 209 210 210 207 204 204 205 205 203 202 198 196
303 304 305 307 309 310 310 311 313 312 312 312 311 311 311 310 309 308 306 307 309 311 311 309 306 302 299 296 294 291 289 290 290 287 283 280 279 273 260 255 264 267 247 224 219 225 228 225 226 226 223 220 219 215 210 210 210 208 206 206 207 210 214 218 220 222 223 223 221 219 217 214 212 211 211 213 214 212 208 205 203 203 201 198 197 197 198
301 301 302 303 304 305 306 307 307 307 307 307 306 306 307 308 308 307 304 303 305 308 308 306 302 299 297 294 289 284 283 286 289 288 284 281 279 272 258 250 255 261 250 235 230 233 234 229 225 225 225 224 223 222 219 216 214 214 216 216 218 223 227 228 228 228 226 224 222 220 217 215 214 212 213 215 214 210 208 206 203 199 198 196 195 198 202
300 299 299 299 299 300 302 303 303 303 302 301 302 303 305 306 306 305 303 302 302 304 305 304 300 297 295 291 284 278 275 277 280 284 281 271 264 266 270 266 261 255 249 243 236 232 229 226 222 222 224 224 224 225 224 220 217 218 221 223 225 228 229 228 229 228 226 227 228 225 220 219 217 215 216 217 213 207 209 213 208 199 195 197 202 209 217
297 297 296 297 298 298 300 301 300 298 297 297 299 302 304 305 304 303 303 301 301 302 304 303 299 296 293 289 283 277 275 272 270 271 271 269 266 265 268 268 263 255 249 245 237 228 224 225 222 220 220 221 221 221 222 222 221 221 222 224 227 232 233 230 228 226 223 226 230 228 223 222 221 217 216 218 214 211 217 223 215 200 196 204 214 222 227
295 295 296 296 296 298 299 299 297 295 295 297 300 302 304 304 303 301 301 302 303 304 305 304 301 296 290 285 281 278 276 273 269 270 274 276 272 266 261 261 263 258 252 250 242 229 221 219 215 208 207 211 216 219 221 223 225 225 225 222 221 221 221 219 219 219 219 225 233 236 233 232 231 229 227 228 228 230 234 232 220 207 207 216 223 226 225
298 298 297 297 296 297 298 297 296 295 296 297 300 303 305 304 302 300 300 302 304 306 306 306 303 296 285 277 271 264 258 259 270 285 292 288 273 258 256 261 258 246 253 270 266 240 225 220 216 211 211 212 214 216 219 222 224 226 227 226 223 217 211 210 217 224 228 232 240 246 242 239 240 242 241 242 242 243 240 232 222 218 222 227 226 224 222
298 297 297 297 297 296 295 294 293 294 294 296 299 303 305 305 302 300 299 300 303 306 309 308 305 299 287 274 259 242 234 240 257 275 291 303 73 103 83 343 264 255 273 312 333 269 232 230 227 228 233 232 223 221 226 233 236 236 237 238 240 240 234 229 231 236 237 234 232 232 232 234 237 239 240 243 245 244 239 233 228 227 228 228 225 223 223
297 296 296 296 296 296 295 294 293 293 294 296 300 304 306 305 303 299 297 300 304 308 312 312 310 312 317 304 261 230 223 230 239 239 229 195 123 89 72 67 58 31 15 38 74 71 48 46 62 53 16 12 198 210 226 242 253 258 260 258 256 256 252 243 239 240 239 235 230 228 230 233 234 233 235 239 242 243 242 238 234 230 230 229 228 226 225
Height
1459 1457 1460 1460 1459 1461 1464 1464 1464 1466 1469 1470 1469 1469 1468 1467 1473 1475 1468 1468 1472 1466 1460 1459 1457 1457 1459 1460 1461 1464 1465 1468 1470 1471 1473 1475 1477 1478 1479 1481 1483 1485 1487 1489 1491 1493 1495 1497 1498 1500 1501 1502 1504 1505 1507 1508 1510 1511 1512 1514 1516 1518 1519 1520 1522 1523 1524 1524 1525 1526 1526 1527 1527 1528 1528 1528 1528 1528 1528 1528 1528 1528 1528 1527 1527 1526 1526
1458 1458 1459 1459 1459 1461 1461 1461 1461 1463 1466 1467 1466 1467 1467 1466 1469 1470 1468 1470 1468 1462 1459 1457 1456 1458 1459 1460 1462 1463 1465 1467 1468 1470 1472 1473 1475 1476 1477 1479 1481 1482 1485 1486 1488 1491 1492 1494 1496 1497 1499 1501 1502 1503 1505 1506 1508 1509 1511 1513 1514 1516 1517 1519 1520 1521 1521 1522 1523 1524 1524 1525 1525 1525 1526 1526 1526 1526 1526 1526 1526 1526 1526 1526 1525 1525 1525
1460 1459 1458 1458 1459 1460 1461 1462 1462 1463 1465 1467 1468 1468 1468 1469 1470 1469 1470 1472 1467 1458 1455 1456 1457 1458 1458 1459 1461 1462 1463 1465 1466 1468 1470 1471 1473 1474 1475 1477 1479 1480 1483 1485 1486 1488 1489 1491 1493 1494 1496 1498 1499 1501 1503 1504 1506 1508 1509 1511 1512 1514 1515 1517 1518 1519 1519 1520 1521 1521 1522 1522 1523 1523 1523 1524 1524 1524 1524 1524 1525 1525 1525 1524 1524 1524 1524
1461 1458 1458 1460 1458 1459 1463 1465 1464 1464 1466 1467 1467 1467 1467 1468 1468 1469 1471 1471 1463 1455 1455 1456 1457 1457 1458 1458 1459 1461 1462 1463 1464 1466 1467 1469 1470 1472 1474 1475 1477 1478 1480 1482 1483 1485 1487 1489 1490 1492 1494 1495 1497 1499 1501 1502 1504 1506 1508 1509 1510 1512 1513 1515 1516 1516 1517 1517 1518 1519 1519 1520 1520 1521 1521 1521 1522 1522 1522 1523 1523 1523 1523 1523 1523 1523 1523
1461 1456 1458 1459 1460 1467 1470 1465 1461 1462 1463 1464 1465 1465 1465 1464 1464 1467 1470 1464 1456 1454 1455 1456 1456 1456 1456 1457 1458 1459 1461 1461 1463 1464 1465 1466 1468 1470 1472 1473 1474 1476 1478 1479 1481 1482 1484 1486 1487 1489 1491 1493 1495 1496 1498 1501 1502 1504 1505 1506 1508 1509 1511 1512 1513 1513 1514 1515 1516 1516 1517 1517 1518 1518 1519 1519 1519 1520 1520 1521 1521 1522 1522 1522 1522 1522 1522
1462 1457 1456 1461 1469 1475 1471 1461 1457 1459 1460 1461 1463 1463 1463 1463 1461 1461 1461 1458 1455 1456 1456 1456 1457 1456 1456 1456 1458 1459 1460 1461 1462 1462 1463 1465 1466 1468 1470 1471 1472 1474 1475 1477 1478 1480 1482 1484 1485 1488 1489 1491 1493 1495 1497 1499 1500 1501 1502 1504 1506 1507 1508 1509 1510 1511 1512 1512 1513 1514 1514 1515 1515 1516 1516 1516 1517 1518 1518 1519 1520 1520 1521 1521 1521 1521 1521
1461 1456 1461 1476 1482 1473 1462 1459 1459 1459 1459 1460 1461 1463 1464 1465 1464 1462 1460 1458 1457 1458 1457 1457 1458 1458 1457 1458 1458 1459 1460 1461 1461 1462 1462 1463 1464 1466 1467 1468 1470 1471 1473 1475 1476 1478 1480 1482 1484 1486 1487 1489 1491 1493 1495 1496 1498 1499 1500 1502 1503 1504 1505 1506 1507 1508 1509 1510 1510 1511 1511 1512 1513 1514 1514 1514 1515 1516 1517 1518 1519 1519 1520 1520 1521 1521 1521
1462 1462 1468 1478 1474 1461 1457 1461 1461 1459 1460 1461 1463 1467 1469 1467 1467 1465 1463 1460 1458 1458 1458 1458 1458 1457 1457 1458 1459 1460 1461 1461 1461 1462 1462 1463 1464 1464 1465 1466 1467 1468 1470 1472 1474 1475 1477 1480 1481 1483 1485 1487 1489 1490 1492 1494 1495 1496 1498 1499 1501 1501 1502 1503 1504 1505 1506 1507 1507 1508 1508 1509 1510 1511 1511 1512 1513 1514 1515 1516 1518 1518 1519 1520 1521 1521 1521
1465 1468 1466 1463 1463 1463 1463 1464 1463 1462 1463 1463 1464 1469 1470 1468 1467 1466 1465 1462 1460 1459 1458 1457 1457 1457 1456 1456 1459 1461 1461 1460 1460 1460 1460 1462 1463 1463 1464 1465 1466 1467 1468 1470 1472 1473 1475 1477 1479 1480 1482 1484 1486 1488 1490 1491 1492 1494 1495 1496 1498 1498 1499 1500 1501 1502 1503 1504 1505 1505 1506 1507 1508 1508 1509 1510 1511 1512 1514 1516 1517 1518 1519 1520 1521 1522 1522
1464 1470 1469 1463 1468 1476 1470 1465 1465 1464 1464 1464 1464 1466 1468 1468 1467 1466 1464 1463 1461 1460 1459 1457 1457 1457 1455 1455 1458 1461 1461 1460 1459 1459 1459 1460 1460 1461 1462 1463 1464 1466 1467 1469 1470 1472 1473 1475 1477 1478 1480 1482 1483 1485 1487 1488 1490 1491 1492 1493 1495 1495 1496 1497 1499 1500 1501 1502 1502 1502 1504 1505 1506 1506 1507 1509 1510 1511 1513 1515 1516 1517 1518 1519 1521 1522 1522
1463 1471 1475 1470 1473 1478 1472 1466 1466 1464 1464 1465 1464 1466 1469 1468 1467 1466 1465 1464 1463 1461 1460 1459 1457 1455 1454 1456 1460 1462 1461 1460 1459 1458 1458 1458 1459 1460 1460 1460 1462 1464 1465 1466 1468 1470 1471 1473 1475 1477 1478 1479 1481 1483 1484 1485 1487 1488 1489 1490 1492 1493 1494 1495 1496 1498 1499 1500 1500 1501 1503 1504 1504 1505 1506 1507 1508 1510 1512 1513 1515 1516 1517 1519 1521 1522 1522
1467 1473 1478 1475 1474 1476 1472 1468 1467 1465 1465 1465 1468 1473 1472 1468 1467 1467 1466 1465 1464 1463 1461 1459 1458 1458 1459 1461 1464 1465 1462 1461 1460 1458 1457 1457 1457 1458 1458 1459 1460 1462 1463 1464 1466 1467 1469 1471 1473 1474 1476 1477 1479 1480 1482 1483 1484 1485 1487 1488 1490 1492 1492 1493 1495 1496 1497 1498 1499 1501 1502 1503 1504 1505 1506 1507 1509 1510 1511 1512 1514 1515 1516 1519 1521 1521 1521
1468 1474 1479 1477 1473 1470 1470 1468 1467 1467 1467 1467 1470 1473 1471 1468 1468 1468 1467 1467 1466 1465 1463 1461 1461 1464 1465 1466 1467 1466 1464 1462 1461 1459 1459 1458 1457 1457 1457 1457 1458 1460 1461 1462 1463 1465 1466 1468 1470 1471 1473 1474 1476 1478 1479 1481 1482 1483 1485 1486 1487 1489 1489 1491 1493 1495 1496 1497 1498 1499 1500 1500 1501 1504 1505 1506 1508 1508 1509 1510 1512 1513 1516 1518 1519 1520 1520
1465 1470 1478 1483 1478 1469 1468 1469 1468 1469 1472 1472 1471 1470 1470 1470 1469 1468 1468 1468 1467 1467 1466 1465 1465 1467 1467 1467 1467 1466 1465 1463 1462 1462 1461 1459 1458 1458 1457 1457 1457 1458 1459 1460 1461 1463 1464 1465 1467 1468 1470 1471 1473 1475 1476 1477 1478 1480 1481 1482 1485 1486 1486 1488 1490 1491 1493 1495 1497 1499 1498 1498 1499 1500 1502 1503 1505 1506 1507 1508 1509 1512 1515 1517 1518 1519 1520
1467 1472 1479 1487 1483 1471 1467 1469 1470 1471 1474 1474 1472 1471 1471 1471 1470 1469 1469 1468 1468 1469 1468 1467 1468 1468 1467 1467 1466 1465 1465 1464 1463 1462 1461 1460 1460 1459 1458 1458 1457 1457 1458 1459 1460 1461 1462 1464 1465 1466 1467 1469 1470 1471 1472 1473 1475 1477 1478 1481 1483 1483 1482 1483 1484 1485 1487 1490 1494 1497 1499 1499 1500 1500 1501 1503 1505 1507 1507 1507 1508 1512 1514 1516 1517 1518 1519
1468 1472 1474 1476 1475 1470 1469 1470 1472 1475 1477 1476 1475 1473 1471 1471 1471 1470 1469 1468 1469 1470 1469 1468 1468 1467 1467 1467 1466 1465 1465 1463 1463 1462 1461 1460 1460 1459 1459 1459 1458 1458 1459 1460 1460 1462 1462 1463 1464 1464 1465 1466 1466 1467 1468 1470 1472 1474 1475 1477 1479 1479 1479 1478 1478 1479 1482 1485 1489 1494 1497 1499 1501 1501 1502 1503 1506 1507 1507 1507 1509 1511 1514 1516 1517 1517 1518
1473 1474 1472 1472 1473 1474 1474 1474 1475 1478 1478 1477 1476 1474 1473 1473 1473 1472 1471 1470 1470 1470 1470 1469 1468 1467 1467 1467 1466 1465 1464 1463 1462 1461 1460 1460 1459 1459 1459 1460 1460 1460 1460 1460 1461 1462 1462 1463 1464 1465 1465 1465 1464 1465 1466 1467 1468 1470 1471 1473 1475 1475 1475 1475 1475 1476 1478 1481 1484 1488 1493 1496 1499 1500 1501 1503 1505 1505 1506 1508 1510 1511 1513 1515 1516 1516 1517
1479 1478 1477 1478 1478 1478 1479 1480 1480 1480 1479 1477 1477 1476 1475 1475 1474 1474 1473 1472 1471 1471 1471 1470 1469 1468 1468 1466 1466 1465 1464 1463 1462 1461 1460 1459 1459 1459 1459 1459 1460 1460 1460 1460 1461 1461 1461 1463 1464 1465 1466 1466 1465 1464 1464 1464 1464 1465 1467 1470 1472 1473 1474 1475 1475 1475 1476 1478 1481 1485 1489 1493 1496 1498 1500 1502 1504 1504 1506 1508 1510 1511 1512 1513 1514 1515 1515
1483 1483 1483 1483 1483 1483 1483 1483 1482 1481 1479 1478 1478 1477 1476 1476 1475 1475 1475 1474 1473 1473 1471 1470 1470 1469 1468 1467 1466 1465 1464 1463 1462 1461 1459 1458 1457 1458 1458 1458 1459 1459 1459 1459 1459 1460 1461 1462 1462 1463 1465 1466 1466 1464 1462 1462 1461 1460 1462 1465 1468 1471 1473 1474 1475 1476 1477 1478 1481 1485 1490 1492 1495 1497 1499 1501 1503 1504 1506 1508 1509 1509 1511 1512 1512 1513 1514
1487 1486 1487 1486 1485 1485 1486 1485 1484 1483 1481 1478 1477 1477 1477 1476 1475 1475 1475 1474 1474 1473 1471 1471 1470 1469 1469 1468 1466 1465 1465 1463 1462 1461 1460 1458 1457 1456 1457 1457 1458 1458 1458 1457 1456 1457 1459 1460 1461 1462 1464 1466 1466 1463 1460 1460 1460 1459 1460 1462 1464 1466 1468 1469 1471 1474 1476 1478 1482 1486 1490 1492 1494 1496 1497 1500 1502 1504 1506 1507 1507 1508 1509 1510 1510 1511 1512
1489 1488 1488 1486 1485 1485 1486 1486 1486 1484 1482 1481 1479 1478 1477 1475 1474 1475 1474 1474 1474 1473 1471 1470 1469 1469 1469 1468 1467 1467 1466 1464 1462 1461 1460 1459 1457 1456 1455 1456 1457 1458 1458 1456 1454 1453 1455 1458 1461 1462 1464 1466 1465 1462 1461 1460 1460 1459 1461 1462 1463 1464 1465 1466 1469 1471 1474 1478 1482 1486 1489 1491 1492 1493 1495 1498 1501 1503 1504 1505 1506 1507 1507 1508 1509 1510 1511
1494 1492 1492 1491 1489 1488 1488 1487 1487 1486 1485 1484 1482 1480 1478 1476 1475 1475 1475 1474 1474 1473 1471 1469 1469 1468 1468 1467 1467 1467 1466 1465 1463 1461 1460 1459 1458 1457 1456 1456 1457 1458 1458 1456 1454 1452 1454 1458 1461 1462 1463 1464 1463 1462 1461 1460 1460 1459 1460 1461 1462 1463 1464 1466 1468 1471 1474 1477 1480 1483 1485 1487 1489 1491 1493 1496 1498 1500 1502 1504 1505 1506 1506 1507 1508 1509 1510
1495 1492 1492 1492 1492 1491 1489 1488 1487 1486 1485 1483 1481 1479 1478 1476 1475 1475 1474 1474 1473 1472 1471 1470 1468 1468 1467 1467 1467 1466 1466 1464 1462 1460 1460 1459 1458 1458 1457 1457 1457 1457 1457 1456 1455 1455 1456 1458 1460 1461 1461 1461 1460 1460 1459 1459 1459 1459 1459 1460 1461 1462 1464 1466 1468 1471 1473 1476 1478 1480 1482 1485 1487 1489 1491 1494 1497 1499 1502 1503 1503 1504 1505 1506 1507 1508 1509
1492 1490 1490 1490 1489 1488 1487 1486 1484 1484 1483 1481 1479 1477 1476 1475 1475 1474 1474 1473 1473 1472 1471 1470 1469 1468 1467 1466 1465 1464 1463 1462 1461 1460 1459 1459 1458 1458 1458 1457 1457 1457 1456 1456 1456 1456 1457 1458 1458 1459 1459 1458 1458 1458 1458 1458 1458 1459 1459 1460 1461 1462 1464 1466 1468 1471 1473 1474 1476 1478 1480 1483 1485 1488 1490 1493 1495 1498 1500 1501 1502 1503 1504 1505 1506 1507 1508
1491 1489 1488 1488 1487 1486 1485 1484 1483 1482 1481 1479 1477 1475 1474 1473 1473 1472 1472 1472 1471 1471 1470 1469 1468 1467 1466 1465 1464 1463 1462 1461 1461 1460 1459 1459 1458 1458 1457 1457 1456 1456 1456 1455 1455 1455 1456 1456 1456 1456 1457 1457 1457 1457 1457 1457 1457 1458 1458 1459 1460 1461 1463 1465 1467 1469 1471 1473 1475 1476 1478 1480 1484 1486 1489 1491 1493 1495 1497 1499 1500 1501 1503 1504 1505 1506 1507
1491 1489 1487 1485 1485 1485 1484 1483 1482 1481 1480 1478 1476 1475 1473 1472 1471 1471 1471 1471 1470 1470 1469 1468 1467 1466 1466 1465 1464 1463 1462 1461 1460 1459 1459 1459 1458 1457 1457 1456 1456 1455 1455 1454 1454 1454 1454 1454 1454 1454 1454 1455 1455 1455 1455 1455 1456 1456 1457 1458 1460 1461 1463 1464 1466 1468 1469 1471 1473 1474 1477 1479 1482 1484 1487 1489 1492 1494 1496 1498 1499 1500 1502 1503 1505 1506 1507
1490 1488 1486 1485 1484 1484 1484 1483 1482 1481 1480 1478 1476 1474 1473 1471 1470 1470 1470 1470 1469 1469 1468 1467 1466 1465 1465 1464 1463 1463 1462 1461 1460 1460 1459 1458 1458 1457 1456 1455 1455 1454 1454 1454 1453 1453 1452 1452 1452 1452 1452 1452 1453 1453 1453 1454 1454 1455 1456 1457 1459 1461 1462 1464 1465 1467 1468 1470 1471 1473 1476 1478 1480 1483 1486 1488 1491 1493 1495 1496 1498 1499 1501 1503 1504 1505 1506
1490 1489 1487 1487 1486 1486 1485 1484 1483 1481 1480 1478 1476 1475 1473 1472 1471 1470 1470 1469 1468 1468 1467 1467 1466 1465 1464 1464 1463 1462 1461 1460 1459 1459 1458 1457 1457 1456 1455 1454 1454 1454 1453 1453 1452 1452 1451 1451 1451 1450 1450 1450 1450 1451 1451 1452 1453 1454 1455 1456 1457 1459 1461 1463 1464 1465 1466 1468 1470 1472 1474 1477 1479 1482 1485 1487 1489 1492 1493 1495 1497 1499 1501 1502 1503 1504 1505
1491 1490 1489 1489 1488 1487 1486 1484 1483 1482 1480 1479 1477 1476 1474 1472 1471 1470 1470 1469 1468 1468 1467 1466 1465 1465 1464 1463 1462 1461 1460 1459 1458 1457 1456 1455 1455 1454 1453 1453 1453 1452 1452 1452 1451 1450 1450 1449 1449 1449 1449 1448 1448 1449 1449 1449 1450 1452 1453 1454 1455 1456 1458 1460 1462 1463 1465 1466 1468 1471 1473 1476 1478 1481 1483 1486 1488 1490 1492 1494 1496 1498 1500 1501 1502 1503 1503
1492 1491 1490 1489 1488 1487 1486 1485 1483 1482 1480 1479 1477 1476 1474 1473 1472 1471 1470 1469 1468 1467 1466 1465 1465 1464 1463 1462 1461 1460 1459 1458 1456 1455 1454 1453 1453 1452 1452 1451 1451 1451 1450 1450 1449 1449 1448 1448 1447 1447 1447 1446 1446 1446 1447 1447 1449 1450 1451 1452 1453 1454 1455 1457 1458 1461 1463 1465 1468 1470 1472 1474 1477 1479 1481 1484 1486 1489 1491 1494 1495 1497 1499 1499 1501 1502 1502
1492 1492 1491 1490 1489 1487 1486 1485 1483 1482 1481 1479 1477 1476 1475 1473 1472 1471 1470 1469 1468 1467 1466 1466 1465 1463 1462 1461 1460 1459 1458 1457 1456 1454 1453 1452 1451 1451 1450 1450 1450 1449 1449 1448 1448 1447 1446 1446 1446 1445 1445 1444 1444 1444 1445 1446 1447 1448 1449 1450 1450 1451 1453 1455 1457 1459 1462 1464 1467 1470 1472 1474 1476 1478 1480 1483 1486 1488 1491 1493 1494 1496 1497 1498 1500 1501 1501
1492 1491 1490 1489 1489 1487 1486 1485 1483 1482 1481 1479 1478 1477 1475 1474 1473 1472 1471 1470 1469 1468 1467 1465 1464 1463 1462 1460 1459 1458 1457 1456 1455 1453 1452 1452 1451 1450 1449 1449 1448 1448 1447 1446 1446 1445 1444 1444 1444 1443 1442 1442 1442 1442 1443 1444 1445 1446 1447 1447 1447 1449 1452 1454 1456 1458 1460 1463 1466 1468 1471 1473 1475 1477 1480 1483 1486 1488 1490 1491 1493 1495 1496 1497 1499 1499 1500
1492 1491 1489 1488 1488 1486 1485 1484 1483 1482 1481 1480 1479 1478 1477 1475 1474 1473 1472 1470 1469 1468 1467 1465 1464 1462 1461 1460 1458 1457 1455 1454 1453 1452 1452 1451 1449 1449 1448 1447 1447 1446 1445 1444 1444 1443 1442 1442 1441 1441 1440 1440 1440 1441 1441 1442 1444 1444 1444 1445 1446 1449 1451 1453 1455 1457 1459 1462 1465 1467 1470 1472 1474 1477 1480 1483 1485 1486 1488 1490 1492 1494 1495 1496 1497 1498 1498
1494 1493 1492 1490 1489 1487 1486 1484 1483 1481 1480 1479 1478 1477 1476 1475 1474 1473 1471 1470 1469 1467 1466 1464 1463 1461 1460 1459 1457 1456 1455 1453 1452 1451 1450 1449 1448 1447 1446 1445 1445 1444 1443 1442 1442 1441 1440 1440 1439 1439 1438 1438 1438 1439 1440 1441 1442 1442 1443 1444 1446 1448 1450 1453 1454 1456 1459 1462 1464 1467 1469 1471 1474 1477 1480 1481 1483 1485 1487 1488 1490 1492 1493 1495 1496 1496 1496
1495 1494 1493 1492 1491 1489 1487 1486 1484 1482 1481 1479 1478 1476 1475 1474 1473 1472 1470 1469 1467 1466 1464 1463 1461 1460 1459 1457 1456 1455 1453 1452 1451 1450 1449 1448 1446 1445 1444 1443 1442 1442 1441 1440 1440 1439 1438 1438 1437 1437 1437 1437 1437 1437 1438 1439 1440 1441 1442 1444 1445 1447 1450 1452 1454 1457 1459 1461 1464 1466 1468 1471 1474 1476 1478 1480 1482 1483 1485 1487 1489 1491 1492 1493 1494 1494 1494
1495 1494 1492 1491 1490 1489 1488 1487 1485 1484 1482 1480 1478 1477 1475 1474 1472 1471 1469 1468 1466 1465 1463 1461 1459 1458 1457 1456 1454 1453 1452 1451 1450 1448 1447 1446 1444 1443 1442 1442 1441 1440 1440 1439 1438 1437 1437 1436 1436 1436 1436 1436 1436 1436 1437 1438 1438 1440 1441 1443 1446 1448 1451 1453 1455 1457 1459 1461 1463 1466 1468 1471 1473 1475 1477 1479 1480 1482 1484 1486 1487 1489 1490 1491 1492 1492 1492
1494 1493 1492 1491 1490 1488 1487 1486 1485 1483 1482 1480 1479 1477 1475 1473 1471 1470 1468 1467 1465 1464 1462 1460 1458 1456 1455 1453 1452 1451 1450 1449 1448 1447 1446 1444 1443 1442 1441 1440 1440 1439 1439 1438 1437 1436 1436 1436 1436 1435 1435 1435 1436 1436 1436 1437 1438 1440 1441 1444 1446 1448 1451 1453 1455 1456 1458 1460 1463 1466 1468 1470 1472 1473 1475 1477 1479 1480 1482 1484 1485 1487 1488 1489 1490 1490 1491
1493 1492 1491 1490 1489 1487 1486 1485 1484 1482 1481 1479 1477 1476 1474 1472 1470 1468 1466 1465 1464 1462 1460 1458 1456 1455 1453 1451 1450 1449 1448 1447 1446 1445 1444 1443 1441 1440 1440 1439 1439 1438 1438 1437 1436 1435 1435 1435 1435 1435 1436 1435 1435 1436 1436 1437 1439 1440 1442 1445 1447 1449 1450 1452 1454 1456 1458 1460 1463 1465 1467 1468 1470 1472 1474 1475 1477 1479 1480 1482 1483 1485 1486 1487 1488 1489 1489
1492 1491 1489 1488 1487 1486 1485 1483 1482 1481 1479 1477 1476 1474 1472 1470 1468 1466 1465 1463 1461 1460 1458 1456 1454 1453 1451 1449 1448 1446 1445 1445 1444 1443 1442 1441 1440 1439 1438 1438 1437 1436 1436 1435 1435 1434 1434 1434 1434 1435 1436 1436 1436 1436 1438 1439 1440 1442 1444 1445 1447 1449 1450 1452 1453 1455 1457 1459 1461 1463 1466 1468 1469 1471 1472 1474 1475 1477 1478 1480 1481 1482 1484 1485 1486 1487 1488
1490 1489 1487 1486 1485 1484 1483 1481 1480 1478 1477 1476 1474 1472 1470 1468 1466 1465 1463 1461 1459 1457 1456 1454 1452 1451 1449 1448 1446 1444 1443 1442 1441 1440 1440 1440 1439 1438 1437 1436 1435 1433 1433 1433 1433 1433 1433 1433 1434 1435 1437 1436 1436 1437 1439 1440 1442 1443 1445 1446 1447 1448 1450 1451 1452 1454 1456 1459 1461 1462 1464 1466 1468 1469 1471 1472 1474 1475 1476 1477 1479 1480 1482 1483 1484 1485 1485
1489 1487 1486 1485 1483 1482 1481 1479 1477 1476 1474 1473 1471 1470 1468 1467 1465 1463 1461 1458 1456 1455 1453 1452 1450 1449 1447 1445 1444 1442 1441 1440 1439 1438 1438 1437 1437 1436 1435 1434 1432 1431 1431 1431 1431 1431 1432 1432 1433 1435 1435 1436 1436 1437 1439 1440 1442 1443 1444 1445 1446 1448 1449 1450 1452 1454 1456 1458 1460 1461 1463 1465 1466 1467 1469 1470 1472 1473 1474 1475 1476 1478 1479 1480 1482 1482 1483
1487 1485 1484 1483 1481 1480 1478 1477 1475 1473 1471 1470 1469 1467 1466 1464 1463 1461 1459 1456 1454 1452 1451 1450 1448 1446 1445 1443 1441 1440 1438 1437 1436 1436 1435 1435 1434 1434 1432 1431 1430 1429 1428 1429 1430 1430 1430 1431 1432 1434 1434 1435 1436 1437 1438 1440 1441 1442 1444 1445 1446 1448 1449 1451 1452 1454 1456 1457 1459 1460 1461 1463 1464 1465 1467 1468 1469 1471 1472 1473 1474 1475 1477 1478 1479 1480 1481
1485 1483 1482 1481 1479 1478 1476 1474 1473 1471 1469 1467 1466 1464 1463 1461 1460 1458 1456 1454 1452 1450 1449 1447 1445 1444 1443 1441 1439 1438 1436 1435 1434 1433 1433 1432 1431 1430 1429 1429 1428 1427 1426 1427 1428 1429 1429 1430 1430 1432 1433 1434 1435 1436 1438 1439 1440 1442 1443 1445 1446 1447 1449 1450 1451 1453 1454 1456 1457 1458 1459 1460 1462 1463 1465 1466 1467 1468 1470 1470 1472 1473 1474 1476 1477 1478 1478
1482 1481 1480 1478 1477 1475 1474 1472 1470 1469 1467 1465 1463 1461 1460 1458 1457 1455 1454 1452 1450 1448 1446 1444 1443 1441 1440 1439 1437 1436 1434 1433 1432 1431 1430 1429 1428 1427 1427 1427 1426 1425 1425 1426 1427 1428 1428 1428 1429 1430 1431 1432 1433 1435 1437 1438 1439 1441 1443 1444 1445 1446 1448 1449 1450 1451 1452 1453 1454 1455 1457 1458 1459 1461 1462 1463 1465 1466 1467 1468 1469 1470 1472 1473 1474 1475 1475
1480 1479 1477 1476 1474 1473 1471 1470 1468 1466 1464 1462 1460 1459 1457 1455 1454 1452 1451 1449 1447 1445 1444 1442 1440 1439 1437 1436 1435 1434 1432 1431 1430 1429 1428 1427 1426 1425 1425 1425 1424 1424 1424 1424 1425 1426 1426 1426 1427 1427 1429 1430 1432 1433 1435 1436 1437 1439 1441 1442 1444 1445 1446 1447 1448 1449 1450 1451 1452 1453 1454 1455 1457 1458 1459 1461 1462 1463 1464 1465 1467 1468 1469 1470 1471 1472 1473
1477 1476 1475 1473 1472 1470 1469 1467 1465 1463 1461 1459 1457 1456 1454 1453 1451 1450 1448 1446 1444 1442 1441 1439 1437 1436 1434 1433 1432 1430 1429 1429 1428 1427 1426 1426 1425 1424 1423 1422 1422 1422 1422 1422 1423 1424 1424 1424 1425 1425 1427 1428 1429 1431 1432 1434 1435 1437 1438 1440 1441 1443 1444 1444 1445 1446 1447 1448 1449 1450 1452 1453 1454 1456 1457 1458 1459 1461 1462 1463 1464 1465 1466 1467 1468 1469 1470
1474 1473 1472 1470 1469 1467 1466 1464 1462 1460 1458 1457 1454 1453 1451 1450 1448 1447 1445 1443 1441 1439 1438 1436 1434 1432 1431 1429 1428 1427 1427 1426 1425 1425 1424 1423 1422 1421 1421 1420 1420 1420 1420 1420 1420 1421 1421 1422 1422 1423 1424 1425 1427 1428 1429 1431 1432 1434 1435 1437 1439 1440 1440 1441 1442 1443 1444 1445 1446 1448 1449 1450 1452 1453 1455 1456 1457 1458 1458 1459 1461 1462 1463 1464 1465 1465 1466
1471 1470 1468 1467 1465 1463 1462 1460 1459 1457 1455 1453 1452 1450 1448 1447 1445 1443 1441 1439 1437 1436 1434 1433 1431 1429 1427 1426 1425 1424 1423 1423 1422 1422 1421 1420 1418 1418 1418 1418 1418 1417 1417 1417 1417 1418 1419 1419 1420 1421 1422 1422 1424 1425 1426 1428 1429 1431 1433 1435 1436 1437 1438 1439 1440 1441 1442 1443 1444 1445 1446 1448 1449 1451 1452 1453 1454 1455 1456 1456 1458 1459 1460 1460 1461 1462 1463
1468 1466 1465 1463 1462 1460 1459 1457 1455 1453 1452 1450 1448 1447 1445 1443 1442 1440 1438 1436 1435 1433 1431 1429 1427 1425 1423 1422 1421 1421 1420 1419 1419 1418 1418 1417 1416 1415 1415 1415 1415 1415 1415 1415 1415 1416 1417 1417 1417 1418 1419 1419 1420 1422 1423 1425 1427 1428 1429 1430 1431 1432 1433 1434 1436 1437 1439 1440 1441 1442 1444 1445 1447 1448 1449 1451 1451 1452 1453 1454 1455 1456 1456 1457 1458 1459 1460
1464 1463 1462 1460 1458 1457 1456 1454 1452 1450 1448 1447 1446 1444 1442 1440 1438 1436 1435 1433 1432 1430 1428 1426 1424 1422 1421 1420 1419 1419 1418 1417 1417 1417 1417 1415 1414 1413 1413 1413 1414 1414 1414 1414 1414 1415 1415 1415 1415 1415 1415 1415 1416 1418 1420 1421 1421 1423 1424 1424 1425 1425 1427 1429 1431 1433 1435 1437 1439 1440 1441 1442 1444 1445 1447 1448 1449 1449 1451 1451 1452 1453 1453 1455 1456 1456 1457
1461 1460 1458 1457 1455 1454 1452 1451 1449 1447 1446 1444 1443 1441 1439 1437 1435 1433 1432 1431 1429 1427 1425 1424 1421 1419 1418 1417 1417 1416 1416 1416 1416 1417 1417 1416 1414 1414 1413 1413 1414 1414 1415 1414 1414 1414 1414 1414 1414 1414 1414 1413 1413 1415 1416 1417 1418 1420 1421 1422 1422 1423 1426 1428 1430 1431 1433 1434 1435 1436 1438 1439 1441 1442 1444 1445 1446 1447 1448 1448 1449 1450 1451 1453 1453 1454 1455
1458 1457 1455 1453 1452 1450 1449 1447 1446 1444 1443 1442 1440 1438 1436 1434 1432 1431 1429 1428 1426 1425 1423 1422 1420 1418 1417 1415 1414 1414 1415 1415 1415 1416 1416 1416 1415 1414 1414 1414 1414 1414 1415 1415 1415 1415 1415 1414 1414 1414 1415 1415 1415 1415 1416 1417 1417 1418 1418 1419 1420 1421 1424 1426 1427 1429 1430 1431 1433 1434 1435 1436 1437 1439 1441 1442 1443 1443 1444 1445 1446 1447 1449 1450 1450 1451 1452